Glens Falls, NY

8:27 PM EDT on March 25, 2017 (GMT -0400)
Bennett Memorial

Weather History for KGFL - December, 2012

Change the Weather History Date:

Sunday, December 23, 2012

  Actual Average Record
Temperature  
Mean Temperature 25 °F 22 °F  
Max Temperature 34 °F 31 °F 61 °F (1990)
Min Temperature 15 °F 13 °F -23 °F (1989)
Degree Days  
Heating Degree Days 40 43  
Month to date heating degree days 727 885  
Since 1 July heating degree days 2250 2583  
Cooling Degree Days 0 0  
Month to date cooling degree days 0 0  
Year to date cooling degree days 533 352  
Moisture  
Dew Point 18 °F    
Average Humidity 71    
Maximum Humidity 88    
Minimum Humidity 53    
Precipitation  
Precipitation T in 0.09 in 0.88 in (2004)
Month to date precipitation 2.74 2.34  
Year to date precipitation 34.11 38.35  
Sea Level Pressure  
Sea Level Pressure 29.83 in    
Wind  
Wind Speed 6 mph (South)    
Max Wind Speed 18 mph    
Max Gust Speed 24 mph    
Visibility 10 miles    
Events Snow    
T = Trace of Precipitation, MM = Missing Value Source: NWS Daily Summary

Daily Weather History Graph

Daily Weather History Graph

Search for Another Location

Airport or City:

Trip Planner

Search our weather history database for the weather conditions in past years. The results will help you decide how hot, cold, wet, or windy it might be!

Date:

Astronomy

Dec. 23, 2012 Rise Set
Actual Time 7:24 AM EST 4:22 PM EST
Civil Twilight 6:52 AM EST 4:55 PM EST
Nautical Twilight 6:16 AM EST 5:31 PM EST
Astronomical Twilight 5:41 AM EST 6:06 PM EST
Moon 1:15 PM EST (12/23) 3:01 AM EST (12/23)
Length of Visible Light 10h 03m
Length of Day
8h 58m
Waxing Gibbous, 81% of the Moon is Illuminated
Dec 23
Waxing Gibbous
Dec 28
Full
Jan 4
Last Quarter
Jan 11
New
Jan 18
First Quarter

Hourly Weather History & Observations

Time (EST) Temp. Windchill Dew Point Humidity Pressure Visibility Wind Dir Wind Speed Gust Speed Precip Events Conditions
12:53 AM 24.1 °F 18.2 °F 10.9 °F 57% 29.78 in 10.0 mi North 4.6 mph - N/A   Partly Cloudy
1:53 AM 23.0 °F 18.4 °F 12.0 °F 63% 29.80 in 10.0 mi Variable 3.5 mph - N/A   Clear
2:53 AM 21.0 °F - 12.0 °F 68% 29.81 in 10.0 mi Calm Calm - N/A   Clear
3:53 AM 21.9 °F - 12.0 °F 66% 29.81 in 10.0 mi Calm Calm - N/A   Clear
4:53 AM 19.0 °F 12.3 °F 12.0 °F 74% 29.83 in 10.0 mi East 4.6 mph - N/A   Clear
5:53 AM 18.0 °F - 12.0 °F 78% 29.85 in 10.0 mi Calm Calm - N/A   Clear
6:53 AM 16.0 °F - 12.0 °F 84% 29.86 in 10.0 mi Calm Calm - N/A   Clear
7:53 AM 17.1 °F - 12.9 °F 84% 29.86 in 10.0 mi Calm Calm - N/A   Clear
8:53 AM 23.0 °F - 16.0 °F 74% 29.87 in 10.0 mi Calm Calm - N/A   Scattered Clouds
9:53 AM 30.0 °F 24.1 °F 15.1 °F 54% 29.86 in 10.0 mi SW 5.8 mph - N/A   Clear
10:53 AM 30.0 °F 21.7 °F 19.0 °F 64% 29.84 in 10.0 mi SSE 9.2 mph - N/A   Clear
11:53 AM 32.0 °F 22.5 °F 19.9 °F 61% 29.82 in 10.0 mi South 12.7 mph 20.7 mph N/A   Mostly Cloudy
12:53 PM 32.0 °F 24.2 °F 21.0 °F 64% 29.80 in 10.0 mi South 9.2 mph - N/A   Overcast
1:53 PM 32.0 °F 24.2 °F 21.9 °F 66% 29.79 in 10.0 mi South 9.2 mph - N/A   Overcast
2:53 PM 30.9 °F 22.2 °F 23.0 °F 72% 29.80 in 10.0 mi South 10.4 mph - N/A   Overcast
3:53 PM 30.9 °F 22.2 °F 23.0 °F 72% 29.79 in 6.0 mi South 10.4 mph - 0.00 in Snow Light Snow
4:53 PM 30.9 °F 22.8 °F 24.1 °F 76% 29.81 in 10.0 mi South 9.2 mph - 0.00 in   Overcast
5:53 PM 32.0 °F 23.6 °F 23.0 °F 69% 29.82 in 10.0 mi South 10.4 mph - N/A   Overcast
6:53 PM 32.0 °F 25.6 °F 23.0 °F 69% 29.83 in 10.0 mi South 6.9 mph - N/A   Overcast
7:53 PM 33.1 °F 26.9 °F 23.0 °F 66% 29.84 in 10.0 mi SSW 6.9 mph - N/A   Overcast
8:53 PM 34.0 °F 27.2 °F 23.0 °F 64% 29.84 in 10.0 mi SSW 8.1 mph - N/A   Overcast
9:53 PM 34.0 °F 28.8 °F 23.0 °F 64% 29.85 in 10.0 mi SSW 5.8 mph - N/A   Overcast
10:53 PM 33.1 °F 27.7 °F 24.1 °F 70% 29.86 in 10.0 mi South 5.8 mph - N/A   Overcast
11:53 PM 33.1 °F - 24.1 °F 70% 29.87 in 9.0 mi Calm Calm - 0.00 in Snow Light Snow